Council Bluffs, IA

12:49 PM CDT on May 27, 2017 (GMT -0500)
Council Bluffs Municipal

Weather History for KCBF - November, 2013

Change the Weather History Date:

Thursday, November 28, 2013

  Actual Average Record
Temperature  
Mean Temperature 27 °F -  
Max Temperature 33 °F 43 °F 66 °F (2006)
Min Temperature 21 °F 28 °F 17 °F (2003)
Degree Days  
Heating Degree Days 38    
Moisture  
Dew Point 17 °F    
Average Humidity 67    
Maximum Humidity 86    
Minimum Humidity 48    
Precipitation  
Precipitation 0.00 in - - ()
Sea Level Pressure  
Sea Level Pressure 30.30 in    
Wind  
Wind Speed 10 mph (North)    
Max Wind Speed 17 mph    
Max Gust Speed 26 mph    
Visibility 10 miles    
Events      
Averages and records for this station are not official NWS values.
T = Trace of Precipitation, MM = Missing Value Source: NWS Daily Summary

Daily Weather History Graph

Daily Weather History Graph

Search for Another Location

Airport or City:

Trip Planner

Search our weather history database for the weather conditions in past years. The results will help you decide how hot, cold, wet, or windy it might be!

Date:

Astronomy

Nov. 28, 2013 Rise Set
Actual Time 7:26 AM CST 4:55 PM CST
Civil Twilight 6:55 AM CST 5:26 PM CST
Nautical Twilight 6:21 AM CST 6:00 PM CST
Astronomical Twilight 5:48 AM CST 6:33 PM CST
Moon 2:27 AM CST (11/28) 2:08 PM CST (11/28)
Length of Visible Light 10h 30m
Length of Day
9h 29m
Waning Crescent, 22% of the Moon is Illuminated
Nov 28
Waning Crescent
Dec 2
New
Dec 9
First Quarter
Dec 17
Full
Dec 25
Last Quarter

Hourly Weather History & Observations

Time (CST) Temp. Windchill Dew Point Humidity Pressure Visibility Wind Dir Wind Speed Gust Speed Precip Events Conditions
12:15 AM 24.8 °F 16.1 °F 15.8 °F 69% 30.03 in 10.0 mi WSW 8.1 mph - N/A   Clear
12:35 AM 24.8 °F 15.3 °F 17.6 °F 74% 30.03 in 10.0 mi WSW 9.2 mph - N/A   Clear
12:55 AM 24.8 °F 16.9 °F 15.8 °F 69% 30.03 in 10.0 mi West 6.9 mph - N/A   Clear
1:15 AM 26.6 °F 16.8 °F 17.6 °F 69% 30.04 in 10.0 mi WNW 10.4 mph - N/A   Clear
1:35 AM 30.2 °F 21.3 °F 21.2 °F 69% 30.05 in 10.0 mi WNW 10.4 mph - N/A   Clear
1:55 AM 30.2 °F 20.2 °F 21.2 °F 69% 30.05 in 10.0 mi NW 12.7 mph - N/A   Clear
2:15 AM 32.0 °F 21.6 °F 21.2 °F 64% 30.06 in 10.0 mi NW 15.0 mph - N/A   Clear
2:35 AM 32.0 °F 21.2 °F 21.2 °F 64% 30.07 in 10.0 mi NW 16.1 mph 26.5 mph N/A   Light Drizzle
2:55 AM 30.2 °F 19.3 °F 21.2 °F 69% 30.08 in 10.0 mi NW 15.0 mph 21.9 mph N/A   Clear
3:15 AM 30.2 °F 18.9 °F 21.2 °F 69% 30.09 in 10.0 mi NW 16.1 mph - N/A   Clear
3:35 AM 30.2 °F 20.2 °F 21.2 °F 69% 30.10 in 10.0 mi NW 12.7 mph 19.6 mph N/A   Clear
3:55 AM 28.4 °F 17.0 °F 21.2 °F 74% 30.10 in 10.0 mi NNW 15.0 mph 21.9 mph N/A   Clear
4:15 AM 28.4 °F 17.0 °F 21.2 °F 74% 30.11 in 10.0 mi NNW 15.0 mph 20.7 mph N/A   Clear
4:35 AM 28.4 °F 17.0 °F 21.2 °F 74% 30.12 in 10.0 mi NW 15.0 mph 24.2 mph N/A   Clear
4:55 AM 26.6 °F 14.7 °F 19.4 °F 74% 30.14 in 10.0 mi NNW 15.0 mph 26.5 mph N/A   Clear
5:15 AM 26.6 °F 13.8 °F 19.4 °F 74% 30.15 in 10.0 mi NNW 17.3 mph 24.2 mph N/A   Clear
5:35 AM 24.8 °F 13.4 °F 19.4 °F 80% 30.16 in 10.0 mi NW 12.7 mph 19.6 mph N/A   Clear
5:55 AM 24.8 °F 13.4 °F 19.4 °F 80% 30.18 in 10.0 mi NW 12.7 mph 26.5 mph N/A   Clear
6:15 AM 24.8 °F 12.4 °F 19.4 °F 80% 30.19 in 10.0 mi NW 15.0 mph 21.9 mph N/A   Clear
6:35 AM 23.0 °F 10.1 °F 19.4 °F 86% 30.21 in 10.0 mi NNW 15.0 mph 21.9 mph N/A   Clear
6:55 AM 23.0 °F 10.6 °F 17.6 °F 80% 30.22 in 10.0 mi NW 13.8 mph 20.7 mph N/A   Light Freezing Rain
7:15 AM 23.0 °F 11.1 °F 17.6 °F 80% 30.23 in 10.0 mi NNW 12.7 mph 21.9 mph N/A   Clear
7:35 AM 23.0 °F 13.1 °F 17.6 °F 80% 30.25 in 10.0 mi NNW 9.2 mph 20.7 mph N/A   Clear
7:55 AM 23.0 °F 11.1 °F 17.6 °F 80% 30.26 in 10.0 mi North 12.7 mph 20.7 mph N/A   Clear
8:15 AM 23.0 °F 11.7 °F 17.6 °F 80% 30.28 in 10.0 mi NNW 11.5 mph - N/A   Clear
8:35 AM 23.0 °F 10.1 °F 17.6 °F 80% 30.29 in 10.0 mi NNW 15.0 mph - N/A   Clear
8:55 AM 24.8 °F 14.0 °F 17.6 °F 74% 30.30 in 10.0 mi North 11.5 mph 18.4 mph N/A   Clear
9:15 AM 24.8 °F 13.4 °F 17.6 °F 74% 30.31 in 10.0 mi NNW 12.7 mph 19.6 mph N/A   Clear
9:35 AM 26.6 °F 17.5 °F 17.6 °F 69% 30.32 in 10.0 mi NNW 9.2 mph 19.6 mph N/A   Clear
9:55 AM 26.6 °F 14.3 °F 17.6 °F 69% 30.32 in 10.0 mi North 16.1 mph - N/A   Clear
10:15 AM 28.4 °F 17.5 °F 17.6 °F 64% 30.34 in 10.0 mi North 13.8 mph 21.9 mph N/A   Clear
10:35 AM 28.4 °F 16.6 °F 17.6 °F 64% 30.34 in 10.0 mi NNW 16.1 mph - N/A   Clear
10:55 AM 30.2 °F 19.3 °F 17.6 °F 60% 30.35 in 10.0 mi North 15.0 mph 20.7 mph N/A   Partly Cloudy
11:15 AM 30.2 °F 19.8 °F 17.6 °F 60% 30.35 in 10.0 mi North 13.8 mph 24.2 mph N/A   Partly Cloudy
11:35 AM 30.2 °F 21.9 °F 17.6 °F 60% 30.35 in 10.0 mi North 9.2 mph 21.9 mph N/A   Mostly Cloudy
11:55 AM 30.2 °F 20.2 °F 17.6 °F 60% 30.35 in 10.0 mi NNW 12.7 mph 19.6 mph N/A   Overcast
12:15 PM 30.2 °F 19.8 °F 17.6 °F 60% 30.36 in 10.0 mi North 13.8 mph - N/A   Overcast
12:35 PM 30.2 °F 21.3 °F 17.6 °F 60% 30.35 in 10.0 mi North 10.4 mph 17.3 mph N/A   Overcast
12:55 PM 30.2 °F 22.6 °F 17.6 °F 60% 30.36 in 10.0 mi NNW 8.1 mph 16.1 mph N/A   Mostly Cloudy
1:15 PM 32.0 °F 22.5 °F 17.6 °F 55% 30.36 in 10.0 mi North 12.7 mph - N/A   Partly Cloudy
1:35 PM 32.0 °F 23.0 °F 15.8 °F 51% 30.35 in 10.0 mi North 11.5 mph - N/A   Clear
1:55 PM 32.0 °F 23.6 °F 15.8 °F 51% 30.36 in 10.0 mi NNE 10.4 mph 16.1 mph N/A   Clear
2:15 PM 33.8 °F 25.3 °F 15.8 °F 48% 30.36 in 10.0 mi North 11.5 mph - N/A   Clear
2:35 PM 33.8 °F 27.7 °F 15.8 °F 48% 30.36 in 10.0 mi Variable 6.9 mph 15.0 mph N/A   Clear
2:55 PM 33.8 °F 26.4 °F 15.8 °F 48% 30.36 in 10.0 mi NNW 9.2 mph - N/A   Clear
3:15 PM 33.8 °F 25.8 °F 15.8 °F 48% 30.37 in 10.0 mi North 10.4 mph - N/A   Clear
3:35 PM 33.8 °F 27.0 °F 15.8 °F 48% 30.38 in 10.0 mi NNW 8.1 mph - N/A   Clear
3:55 PM 33.8 °F 28.6 °F 15.8 °F 48% 30.38 in 10.0 mi North 5.8 mph - N/A   Clear
4:15 PM 32.0 °F 28.7 °F 15.8 °F 51% 30.39 in 10.0 mi North 3.5 mph - N/A   Clear
4:35 PM 32.0 °F 25.6 °F 15.8 °F 51% 30.39 in 10.0 mi North 6.9 mph - N/A   Clear
4:55 PM 30.2 °F 25.4 °F 15.8 °F 55% 30.40 in 10.0 mi North 4.6 mph - N/A   Clear
5:15 PM 28.4 °F 24.6 °F 15.8 °F 59% 30.41 in 10.0 mi NNE 3.5 mph - N/A   Clear
5:35 PM 28.4 °F 24.6 °F 15.8 °F 59% 30.41 in 10.0 mi NE 3.5 mph - N/A   Clear
5:55 PM 28.4 °F - 15.8 °F 59% 30.42 in 10.0 mi Calm Calm - N/A   Partly Cloudy
6:15 PM 28.4 °F - 15.8 °F 59% 30.43 in 10.0 mi Calm Calm - N/A   Scattered Clouds
6:35 PM 28.4 °F - 15.8 °F 59% 30.43 in 10.0 mi Calm Calm - N/A   Scattered Clouds
6:55 PM 28.4 °F 24.6 °F 15.8 °F 59% 30.43 in 10.0 mi NNE 3.5 mph - N/A   Mostly Cloudy
7:15 PM 26.6 °F 21.2 °F 15.8 °F 64% 30.43 in 10.0 mi NNE 4.6 mph - N/A   Mostly Cloudy
7:35 PM 26.6 °F 21.2 °F 15.8 °F 64% 30.43 in 10.0 mi NNE 4.6 mph - N/A   Mostly Cloudy
7:55 PM 24.8 °F 19.1 °F 15.8 °F 69% 30.43 in 10.0 mi North 4.6 mph - N/A   Scattered Clouds
8:15 PM 24.8 °F 19.1 °F 15.8 °F 69% 30.44 in 10.0 mi NNE 4.6 mph - N/A   Mostly Cloudy
8:35 PM 24.8 °F 19.1 °F 15.8 °F 69% 30.44 in 10.0 mi NE 4.6 mph - N/A   Mostly Cloudy
8:55 PM 23.0 °F 17.0 °F 15.8 °F 74% 30.44 in 10.0 mi NE 4.6 mph - N/A   Mostly Cloudy
9:15 PM 23.0 °F - 15.8 °F 74% 30.45 in 10.0 mi Calm Calm - N/A   Mostly Cloudy
9:35 PM 23.0 °F - 15.8 °F 74% 30.46 in 10.0 mi Calm Calm - N/A   Mostly Cloudy
9:55 PM 23.0 °F 18.4 °F 15.8 °F 74% 30.46 in 10.0 mi ENE 3.5 mph - N/A   Mostly Cloudy
10:15 PM 23.0 °F 15.8 °F 15.8 °F 74% 30.46 in 10.0 mi East 5.8 mph - N/A   Mostly Cloudy
10:35 PM 23.0 °F 15.8 °F 15.8 °F 74% 30.46 in 10.0 mi East 5.8 mph - N/A   Scattered Clouds
10:55 PM 23.0 °F 14.7 °F 15.8 °F 74% 30.46 in 10.0 mi East 6.9 mph - N/A   Scattered Clouds
11:15 PM 23.0 °F 14.7 °F 15.8 °F 74% 30.47 in 10.0 mi East 6.9 mph - N/A   Partly Cloudy
11:35 PM 21.2 °F 12.6 °F 15.8 °F 80% 30.47 in 10.0 mi East 6.9 mph - N/A   Partly Cloudy
11:55 PM 21.2 °F 11.7 °F 15.8 °F 80% 30.47 in 10.0 mi East 8.1 mph - N/A   Partly Cloudy